SCP
0 0 0 0 0 0 0 0 0 0 0 0 0 0 0 0 0 0 0 0 0 0 0 0 0 -0 0 0 0 0 0 0 0 0 0 0 0 0 -0 0 0 0 0 0 0
0 0 0 0 0 0 0 0 0 0 0 0 0 0 0 0 0 0 0 0 0 0 0 0 0 0 0 0 0 0 0 0 0 0 0 0 0 -0 0 0 0 0 0 0 0
0 0 0 0 0 0 0 0 0 0 0 0 0 0 0 0 0 0 0 0 0 0 0 0 0 0 0 0 0 0 0 0 0 0 0 0 0 0 0 0 0 0 0 0 0
0 0 0 0 0 0 0 0 0 0 0 0 0 0 0 0 0 0 0 0 0 0 0 0 0 0 0 0 0 0 0 0 0 0 0 0 0 0 0 0 0 0 0 0 0
0 0 0 0 0 0 0 0 0 0 0 0 0 0 0 -0 0 0 -0 -0 0 0 0 0 0 0 0 0 0 0 0 0 0 0 0 0 0 0 0 0 0 0 0 0 0
0 0 0 0 0 0 0 0 0 0 0 0 0 0 0 0 0 0 0 0 0 0 0 0 0 0 0 0 0 0 0 0 0 0 0 0 0 0 0 0 0 0 0 0 0
0 0 0 0 0 0 0 0 0 0 0 0 0 0 0 0 0 0 0 0 0 0 0 0 0 0 0 0 0 0 0 0 0 0 0 0 0 0 0 0 0 0 0 0 0
0 0 0 0 0 0 0 0 0 0 0 0 0 -0 0 -0 -0 0 0 0 0 0 0 0 0 0 0 0 0 0 0 0 0 0 -0 0 0 0 0 0 0 0 0 0 0
-0 -0 -0 -0 -0 0 0 0 -0 -0 -0 -0 0 -0 0 -0 -0 0 0 0 0 0 0 0 0 0 0 0 0 0 0 0 0 0 0 0 0 0 0 0 0 0 0 0 0
-0 -0 -0 -0 -0 0 0 0 -0 -0 -0 -0 -0 0 -0 0 0 -0 0 0 0 0 0 0 0 0 0 0 0 0 0 0 0 0 0 0 0 0 0 0 0 0 0 0 0
-0 -0 0 0 -0 0 0 0 0 -0 -0 -0 0 -0 0 0 0 0 0 0 0 0 0 0 0 0 0 0 0 0 0 0 0 0 0 0 0 0 0 0 0 0 0 0 0
-0 -0 -0 0 0 -0 -0 -0 0 0 0 0 0 0 -0 -0 0 0 0 0 0 0 0 0 0 0 0 0 0 0 0 0 0 0 0 0 0 0 0 0 0 0 0 0 0
0 -0 0 0 0 -0 -0 0 0 -0 -0 -0 -0 -0 -0 -0 0 0 0 0 0 0 0 0 0 0 0 0 0 0 0 0 0 0 0 0 0 0 0 -0 0 0 -0 0 0
0 0 0 0 0 0 -0 0 -0 0 -0 -0 -0 -0 -0 0 0 0 -0 0 0 0 0 0 0 0 0 0 0 0 0 0 0 0 0 0 0 0 0 0 0 0 0 0 0
0 0 0 0 0 0 0 0 0 0 -0 -0 -0 0 0 -0 -0 -0 -0 0 0 0 0 0 0 0 0 0 0 0 0 0 0 0 0 0 0 -0 0 0 0 0 0 0 0
0 0 -0 0 0 0 -0 -0 0 -0 0 -0 -0 -0 -0 0 0 0 -0 0 0 0 0 0 0 0 0 0 0 0 0 0 0 0 0 0 0 0 -0 0 0 0 0 0 0
0 -0 -0 0 0 0 0 0 -0 -0 -0 -0 -0 0 0 0 0 -0 0 0 -0 0 0 0 0 0 0 0 0 0 0 0 0 0 0 0 0 0 -0 0 0 0 0 -0 0
0 -0 0 0 0 0 0 0 -0 -0 -0 0 -0 0 0 0 0 -0 0 0 0 -0 0 0 0 0 0 0 0 0 0 0 0 0 0 0 -0 -0 0 0 0 0 0 0 0
0 0 0 0 0 0 0 0 0 0 -0 -0 -0 0 0 -0 0 0 0 0 0 0 0 0 0 0 0 0 0 0 0 0 0 0 0 0 0 0 -0 0 0 0 0 -0 0
0 0 0 0 0 0 0 0 0 0 -0 -0 -0 -0 -0 -0 0 0 0 0 0 0 -0 -0 0 0 0 0 0 0 0 0 0 0 0 0 0 -0 0 0 0 0 -0 -0 0
0 0 0 0 0 0 0 0 -0 0 0 0 -0 -0 -0 -0 -0 -0 0 0 0 0 0 -0 0 0 0 0 0 0 0 0 0 0 0 0 0 0 0 0 0 0 0 0 -0
0 0 0 0 0 0 0 0 0 -0 0 -0 0 0 -0 0 -0 -0 0 0 0 0 0 0 0 0 0 0 0 0 0 0 0 0 0 0 0 0 0 0 0 0 0 -0 0
0 0 0 0 0 0 -0 0 -0 0 0 0 0 0 0 -0 -0 -0 -0 0 0 0 0 0 0 0 0 0 0 0 0 0 0 0 0 0 0 0 0 0 0 0 0 0 -0
0 0 0 0 0 0 -0 0 0 0 0 -0 -0 0 0 -0 -0 -0 0 -0 -0 -0 -0 -0 0 0 0 0 0 0 0 0 0 0 0 0 0 0 0 0 0 0 0 0 0
0 0 0 0 0 0 0 0 -0 0 -0 0 -0 -0 -0 -0 -0 -0 0 -0 -0 0 -0 -0 -0 0 -0 -0 0 0 0 0 -0 0 0 0 0 -0 0 0 0 0 0 0 0
0 0 0 0 0 0 0 0 -0 0 0 0 -0 -0 -0 -0 -0 -0 -0 -0 0 -0 0 -0 0 0 -0 -0 0 0 0 0 0 0 -0 0 0 0 0 0 0 0 0 0 0
0 0 0 0 0 0 0 0 0 0 0 0 -0 -0 -0 -0 0 -0 -0 -0 -0 -0 -0 -0 0 -0 -0 -0 -0 0 0 0 0 0 0 0 0 0 0 0 0 0 0 0 0
Wind_Speed_500mb
33 33 32 33 35 36 36 36 37 35 32 32 39 43 50 53 50 45 56 46 20 39 33 20 22 32 37 42 45 46 30 32 45 46 42 45 34 36 49 6 34 27 28 31 32
36 37 36 36 35 35 37 39 39 39 39 35 32 32 38 49 53 61 64 52 48 41 38 37 38 31 46 42 55 42 32 51 43 43 42 46 39 50 34 17 31 43 45 37 36
35 36 38 39 40 40 41 40 40 40 41 40 37 31 27 27 40 42 42 50 53 54 54 36 38 41 49 56 58 53 47 48 53 58 61 53 52 59 51 36 47 50 49 45 38
33 34 36 38 40 42 43 43 42 39 40 41 40 36 25 12 16 5 12 15 44 54 46 44 46 55 53 50 61 52 71 69 69 70 69 54 66 66 64 62 50 64 53 47 39
37 37 37 38 39 41 41 42 43 42 40 40 39 38 35 26 38 33 29 32 14 39 54 58 60 61 54 54 62 59 58 76 79 73 74 76 65 63 72 75 74 70 61 65 53
42 44 45 45 45 46 45 43 42 41 43 42 41 37 31 49 24 33 36 30 26 29 41 47 63 65 60 65 60 69 71 73 80 76 75 60 63 72 72 78 72 72 66 69 73
38 40 42 44 46 48 48 47 46 46 44 43 41 39 41 62 34 30 26 31 38 39 41 44 50 60 69 60 77 79 61 60 61 72 63 72 64 58 74 76 71 80 73 73 70
42 44 46 46 47 47 45 43 40 41 46 40 38 25 38 30 25 41 43 50 53 50 50 45 42 52 59 76 76 63 65 60 56 60 75 63 65 51 74 66 67 66 68 68 60
47 51 53 54 55 56 56 50 33 29 34 33 26 21 34 19 27 30 31 51 46 47 50 51 50 50 42 42 42 58 48 66 63 57 59 59 66 53 74 73 68 62 63 60 68
49 52 53 55 57 60 58 47 37 36 18 16 23 25 43 28 21 10 6 11 35 41 47 55 45 38 36 38 47 44 61 60 56 53 55 62 58 53 65 70 64 63 50 50 73
55 58 60 61 57 53 41 38 35 14 13 38 30 32 50 24 15 21 22 24 21 34 40 53 33 48 81 61 59 55 62 66 58 55 57 51 51 57 48 53 52 56 47 58 74
57 61 59 57 52 24 21 24 31 27 41 45 66 81 77 68 70 65 45 43 34 34 36 38 56 76 44 64 62 67 63 61 58 55 48 46 53 52 45 44 52 51 52 52 64
60 62 61 54 32 16 29 29 32 31 39 79 96 82 71 61 67 59 51 55 45 43 40 46 75 45 58 60 60 62 62 56 62 50 54 47 51 49 49 55 54 55 64 50 51
56 58 52 48 20 35 24 27 32 31 17 22 22 16 30 27 40 46 50 58 49 53 44 48 52 63 60 67 60 59 57 57 56 46 40 38 38 49 39 43 40 50 50 52 52
57 58 36 39 30 31 36 39 30 16 11 15 7 11 13 25 7 14 21 38 46 43 41 67 44 54 63 73 59 69 43 53 55 50 42 47 29 57 34 35 32 26 40 50 54
59 43 29 25 25 30 37 32 21 9 11 24 32 25 23 25 33 18 14 16 27 38 41 57 66 57 58 53 65 52 51 57 52 38 37 53 38 59 37 37 34 33 48 51 42
51 28 23 18 30 32 30 19 9 9 19 15 35 24 28 18 32 16 23 25 19 29 39 47 55 62 57 58 57 61 45 33 37 34 43 33 38 47 42 37 36 36 39 43 36
38 22 23 15 32 24 21 4 7 39 41 42 31 39 31 27 28 31 22 26 26 29 24 27 38 56 48 66 54 57 50 32 51 35 38 43 53 40 42 43 50 40 28 35 49
35 22 18 11 16 11 20 7 19 31 33 37 39 31 26 32 15 30 20 33 13 12 7 15 31 55 59 58 56 59 56 63 45 43 37 32 35 60 54 40 29 14 31 41 44
30 20 20 10 13 10 7 18 25 22 28 34 17 7 34 34 13 21 17 6 20 7 15 10 28 46 54 57 66 63 43 50 38 51 48 39 45 27 23 29 25 26 18 34 50
25 14 4 6 14 15 10 14 41 34 29 16 39 30 37 36 41 19 16 17 11 9 17 17 17 37 45 51 55 47 51 47 43 36 32 29 27 25 5 19 12 19 35 37 52
16 9 6 12 11 10 17 40 51 51 31 29 21 16 32 28 26 35 31 17 10 16 21 30 13 32 46 41 42 57 50 49 39 49 33 26 29 11 5 9 11 21 43 58 53
19 31 7 6 7 18 35 40 52 31 38 34 21 25 20 22 20 8 21 11 6 6 4 12 12 22 37 35 40 39 56 49 41 22 38 33 31 14 12 15 22 21 42 60 58
16 8 20 22 7 24 29 36 39 53 26 45 37 27 18 37 25 15 18 16 16 14 6 6 14 30 21 14 30 16 47 62 52 34 38 39 18 11 15 16 9 34 57 56 57
11 10 25 14 24 26 32 32 37 27 26 36 28 38 35 37 35 29 22 35 28 12 3 4 16 35 41 26 30 42 58 58 58 48 43 37 36 27 25 21 26 30 47 51 55
22 25 24 43 29 25 29 26 35 39 40 31 27 39 39 34 31 41 38 35 26 5 1 9 9 31 29 29 20 45 61 51 58 53 53 43 28 22 23 35 33 30 39 47 54
21 19 16 24 16 13 20 29 40 38 20 46 38 36 37 37 45 55 62 61 44 34 31 30 11 16 17 11 15 36 47 43 44 50 52 34 12 37 16 16 22 34 41 45 52
Wind_Direction_500mb
336 333 333 332 330 330 328 326 324 326 320 311 302 299 292 290 280 268 262 254 240 246 235 229 224 224 224 231 232 235 253 253 257 262 272 284 314 302 285 157 285 302 298 295 290
335 333 331 328 325 323 322 323 325 323 321 318 318 319 301 291 289 278 264 255 239 225 224 226 233 225 222 238 235 228 242 243 246 269 280 274 264 270 277 268 255 296 272 259 281
337 334 332 330 327 324 321 318 318 318 319 318 320 320 323 309 306 271 254 250 240 233 237 231 239 229 231 232 231 231 242 249 256 254 270 274 295 293 291 267 274 281 278 297 294
343 338 336 333 331 329 326 322 318 313 311 312 313 312 313 305 252 35 354 247 228 226 226 230 235 243 238 235 237 240 236 242 254 260 269 274 276 285 289 293 284 278 287 289 291
346 342 339 337 334 332 330 326 321 317 309 302 300 304 308 248 241 283 309 299 242 220 230 231 229 228 237 239 246 238 245 249 252 258 261 267 272 278 279 283 289 291 285 288 284
346 342 340 338 335 333 330 324 319 314 308 303 298 296 289 269 263 257 262 247 244 233 234 226 232 232 244 239 241 247 244 255 259 257 257 263 270 272 275 283 282 279 273 276 270
349 345 341 337 335 333 329 324 320 315 307 299 296 291 270 253 254 243 252 250 246 240 242 238 239 233 241 247 250 252 259 261 256 261 263 269 265 260 271 270 270 274 276 274 275
354 349 345 341 338 334 326 319 313 311 303 300 292 273 259 271 254 261 262 258 254 248 247 246 257 272 259 252 258 249 253 257 251 255 258 259 263 264 270 276 274 278 279 272 265
349 345 341 338 337 336 331 326 316 304 301 297 284 229 277 287 249 259 253 247 244 244 243 244 247 255 263 248 245 245 248 251 250 248 264 258 267 265 256 257 259 260 269 272 275
346 340 336 333 334 332 326 328 328 291 287 278 257 260 256 276 263 189 256 263 233 242 243 228 230 239 242 237 227 223 235 241 256 248 249 248 254 261 257 257 259 249 258 268 274
343 338 334 331 333 332 332 354 348 297 248 257 279 224 287 285 258 244 277 271 250 241 236 224 218 223 220 221 240 237 240 246 253 252 247 254 261 266 276 274 261 269 267 268 262
341 336 333 333 331 346 343 323 327 306 296 278 268 263 261 267 270 262 263 258 244 241 232 230 219 225 232 228 234 242 251 253 262 265 260 261 257 259 248 252 261 264 243 255 280
340 336 334 336 337 359 321 314 322 317 292 281 264 259 260 249 248 252 243 242 243 249 235 224 237 225 235 234 235 238 238 245 256 265 266 268 269 270 268 270 265 258 270 258 259
338 339 340 345 339 321 314 332 325 325 289 287 214 229 225 243 244 245 241 232 237 238 246 248 243 242 227 237 231 242 233 243 249 251 257 254 269 256 262 264 257 255 255 259 252
339 341 349 351 351 337 319 325 321 315 276 107 135 109 174 199 204 185 214 221 235 241 233 243 247 234 239 238 228 245 244 248 247 251 261 254 259 267 269 268 269 276 267 261 253
339 343 359 355 338 327 324 326 321 242 250 359 357 349 359 339 316 308 205 220 245 239 246 252 252 254 247 243 248 247 240 251 258 257 247 243 242 264 258 263 270 270 262 249 256
344 356 357 352 336 330 327 327 275 285 277 0 323 328 307 284 232 251 294 251 225 241 241 249 244 252 250 253 234 237 236 234 236 235 241 244 241 255 265 266 272 273 267 269 260
344 339 341 322 333 341 336 353 277 3 357 349 341 312 301 299 288 273 266 258 254 221 260 277 269 230 235 239 236 225 232 228 223 226 241 240 252 260 254 258 254 282 233 241 237
343 337 335 313 345 331 309 280 7 340 345 338 340 317 310 326 347 303 271 300 350 358 184 321 287 259 226 244 239 234 221 235 249 240 245 255 243 236 243 245 241 239 234 235 140
337 310 280 327 345 313 286 292 306 351 337 326 339 326 311 313 327 310 307 339 305 324 129 295 288 277 271 218 241 236 228 223 230 232 246 236 240 253 186 225 226 196 222 201 143
325 260 243 351 326 301 284 305 312 321 314 350 305 340 321 336 322 277 273 211 222 293 295 250 222 274 282 239 216 227 227 221 241 225 236 246 264 295 83 171 174 195 196 189 146
307 291 188 344 305 266 284 324 321 319 311 309 324 339 302 291 280 306 306 340 270 281 305 299 278 265 266 271 246 233 226 230 218 218 228 247 238 68 134 229 175 260 180 151 151
305 326 336 336 329 324 323 321 309 340 355 313 321 307 2 317 314 359 334 309 349 324 338 336 261 261 258 267 258 255 224 233 237 237 219 232 250 143 148 208 216 181 149 146 150
306 326 320 325 341 306 316 314 318 328 310 342 322 330 2 298 302 283 309 270 274 246 296 292 258 262 260 309 337 312 240 230 222 207 227 220 192 198 180 189 177 137 130 142 154
307 293 337 302 313 314 302 283 311 320 332 333 324 324 330 329 321 321 331 312 312 80 34 173 277 285 259 248 285 298 286 240 224 198 217 226 226 219 165 173 112 121 141 148 156
328 337 328 302 312 306 305 317 315 333 333 319 327 323 317 311 316 307 312 302 300 296 212 230 261 298 275 246 279 300 285 277 219 201 216 239 176 44 97 112 128 147 156 161 161
339 319 306 298 309 293 310 318 318 320 312 314 309 306 308 310 307 292 283 281 280 274 265 266 289 322 255 231 301 281 243 249 245 209 209 204 194 130 210 98 120 148 159 162 160
Wind_Speed_850mb
33 33 32 33 35 36 36 36 37 35 32 32 39 43 50 53 50 45 56 46 20 39 33 20 22 32 37 42 45 46 30 32 45 46 42 45 34 36 49 6 34 27 28 31 32
36 37 36 36 35 35 37 39 39 39 39 35 32 32 38 49 53 61 64 52 48 41 38 37 38 31 46 42 55 42 32 51 43 43 42 46 39 50 34 17 31 43 45 37 36
35 36 38 39 40 40 41 40 40 40 41 40 37 31 27 27 40 42 42 50 53 54 54 36 38 41 49 56 58 53 47 48 53 58 61 53 52 59 51 36 47 50 49 45 38
33 34 36 38 40 42 43 43 42 39 40 41 40 36 25 12 16 5 12 15 44 54 46 44 46 55 53 50 61 52 71 69 69 70 69 54 66 66 64 62 50 64 53 47 39
37 37 37 38 39 41 41 42 43 42 40 40 39 38 35 26 38 33 29 32 14 39 54 58 60 61 54 54 62 59 58 76 79 73 74 76 65 63 72 75 74 70 61 65 53
42 44 45 45 45 46 45 43 42 41 43 42 41 37 31 49 24 33 36 30 26 29 41 47 63 65 60 65 60 69 71 73 80 76 75 60 63 72 72 78 72 72 66 69 73
38 40 42 44 46 48 48 47 46 46 44 43 41 39 41 62 34 30 26 31 38 39 41 44 50 60 69 60 77 79 61 60 61 72 63 72 64 58 74 76 71 80 73 73 70
42 44 46 46 47 47 45 43 40 41 46 40 38 25 38 30 25 41 43 50 53 50 50 45 42 52 59 76 76 63 65 60 56 60 75 63 65 51 74 66 67 66 68 68 60
47 51 53 54 55 56 56 50 33 29 34 33 26 21 34 19 27 30 31 51 46 47 50 51 50 50 42 42 42 58 48 66 63 57 59 59 66 53 74 73 68 62 63 60 68
49 52 53 55 57 60 58 47 37 36 18 16 23 25 43 28 21 10 6 11 35 41 47 55 45 38 36 38 47 44 61 60 56 53 55 62 58 53 65 70 64 63 50 50 73
55 58 60 61 57 53 41 38 35 14 13 38 30 32 50 24 15 21 22 24 21 34 40 53 33 48 81 61 59 55 62 66 58 55 57 51 51 57 48 53 52 56 47 58 74
57 61 59 57 52 24 21 24 31 27 41 45 66 81 77 68 70 65 45 43 34 34 36 38 56 76 44 64 62 67 63 61 58 55 48 46 53 52 45 44 52 51 52 52 64
60 62 61 54 32 16 29 29 32 31 39 79 96 82 71 61 67 59 51 55 45 43 40 46 75 45 58 60 60 62 62 56 62 50 54 47 51 49 49 55 54 55 64 50 51
56 58 52 48 20 35 24 27 32 31 17 22 22 16 30 27 40 46 50 58 49 53 44 48 52 63 60 67 60 59 57 57 56 46 40 38 38 49 39 43 40 50 50 52 52
57 58 36 39 30 31 36 39 30 16 11 15 7 11 13 25 7 14 21 38 46 43 41 67 44 54 63 73 59 69 43 53 55 50 42 47 29 57 34 35 32 26 40 50 54
59 43 29 25 25 30 37 32 21 9 11 24 32 25 23 25 33 18 14 16 27 38 41 57 66 57 58 53 65 52 51 57 52 38 37 53 38 59 37 37 34 33 48 51 42
51 28 23 18 30 32 30 19 9 9 19 15 35 24 28 18 32 16 23 25 19 29 39 47 55 62 57 58 57 61 45 33 37 34 43 33 38 47 42 37 36 36 39 43 36
38 22 23 15 32 24 21 4 7 39 41 42 31 39 31 27 28 31 22 26 26 29 24 27 38 56 48 66 54 57 50 32 51 35 38 43 53 40 42 43 50 40 28 35 49
35 22 18 11 16 11 20 7 19 31 33 37 39 31 26 32 15 30 20 33 13 12 7 15 31 55 59 58 56 59 56 63 45 43 37 32 35 60 54 40 29 14 31 41 44
30 20 20 10 13 10 7 18 25 22 28 34 17 7 34 34 13 21 17 6 20 7 15 10 28 46 54 57 66 63 43 50 38 51 48 39 45 27 23 29 25 26 18 34 50
25 14 4 6 14 15 10 14 41 34 29 16 39 30 37 36 41 19 16 17 11 9 17 17 17 37 45 51 55 47 51 47 43 36 32 29 27 25 5 19 12 19 35 37 52
16 9 6 12 11 10 17 40 51 51 31 29 21 16 32 28 26 35 31 17 10 16 21 30 13 32 46 41 42 57 50 49 39 49 33 26 29 11 5 9 11 21 43 58 53
19 31 7 6 7 18 35 40 52 31 38 34 21 25 20 22 20 8 21 11 6 6 4 12 12 22 37 35 40 39 56 49 41 22 38 33 31 14 12 15 22 21 42 60 58
16 8 20 22 7 24 29 36 39 53 26 45 37 27 18 37 25 15 18 16 16 14 6 6 14 30 21 14 30 16 47 62 52 34 38 39 18 11 15 16 9 34 57 56 57
11 10 25 14 24 26 32 32 37 27 26 36 28 38 35 37 35 29 22 35 28 12 3 4 16 35 41 26 30 42 58 58 58 48 43 37 36 27 25 21 26 30 47 51 55
22 25 24 43 29 25 29 26 35 39 40 31 27 39 39 34 31 41 38 35 26 5 1 9 9 31 29 29 20 45 61 51 58 53 53 43 28 22 23 35 33 30 39 47 54
21 19 16 24 16 13 20 29 40 38 20 46 38 36 37 37 45 55 62 61 44 34 31 30 11 16 17 11 15 36 47 43 44 50 52 34 12 37 16 16 22 34 41 45 52
Wind_Direction_850mb
336 333 333 332 330 330 328 326 324 326 320 311 302 299 292 290 280 268 262 254 240 246 235 229 224 224 224 231 232 235 253 253 257 262 272 284 314 302 285 157 285 302 298 295 290
335 333 331 328 325 323 322 323 325 323 321 318 318 319 301 291 289 278 264 255 239 225 224 226 233 225 222 238 235 228 242 243 246 269 280 274 264 270 277 268 255 296 272 259 281
337 334 332 330 327 324 321 318 318 318 319 318 320 320 323 309 306 271 254 250 240 233 237 231 239 229 231 232 231 231 242 249 256 254 270 274 295 293 291 267 274 281 278 297 294
343 338 336 333 331 329 326 322 318 313 311 312 313 312 313 305 252 35 354 247 228 226 226 230 235 243 238 235 237 240 236 242 254 260 269 274 276 285 289 293 284 278 287 289 291
346 342 339 337 334 332 330 326 321 317 309 302 300 304 308 248 241 283 309 299 242 220 230 231 229 228 237 239 246 238 245 249 252 258 261 267 272 278 279 283 289 291 285 288 284
346 342 340 338 335 333 330 324 319 314 308 303 298 296 289 269 263 257 262 247 244 233 234 226 232 232 244 239 241 247 244 255 259 257 257 263 270 272 275 283 282 279 273 276 270
349 345 341 337 335 333 329 324 320 315 307 299 296 291 270 253 254 243 252 250 246 240 242 238 239 233 241 247 250 252 259 261 256 261 263 269 265 260 271 270 270 274 276 274 275
354 349 345 341 338 334 326 319 313 311 303 300 292 273 259 271 254 261 262 258 254 248 247 246 257 272 259 252 258 249 253 257 251 255 258 259 263 264 270 276 274 278 279 272 265
349 345 341 338 337 336 331 326 316 304 301 297 284 229 277 287 249 259 253 247 244 244 243 244 247 255 263 248 245 245 248 251 250 248 264 258 267 265 256 257 259 260 269 272 275
346 340 336 333 334 332 326 328 328 291 287 278 257 260 256 276 263 189 256 263 233 242 243 228 230 239 242 237 227 223 235 241 256 248 249 248 254 261 257 257 259 249 258 268 274
343 338 334 331 333 332 332 354 348 297 248 257 279 224 287 285 258 244 277 271 250 241 236 224 218 223 220 221 240 237 240 246 253 252 247 254 261 266 276 274 261 269 267 268 262
341 336 333 333 331 346 343 323 327 306 296 278 268 263 261 267 270 262 263 258 244 241 232 230 219 225 232 228 234 242 251 253 262 265 260 261 257 259 248 252 261 264 243 255 280
340 336 334 336 337 359 321 314 322 317 292 281 264 259 260 249 248 252 243 242 243 249 235 224 237 225 235 234 235 238 238 245 256 265 266 268 269 270 268 270 265 258 270 258 259
338 339 340 345 339 321 314 332 325 325 289 287 214 229 225 243 244 245 241 232 237 238 246 248 243 242 227 237 231 242 233 243 249 251 257 254 269 256 262 264 257 255 255 259 252
339 341 349 351 351 337 319 325 321 315 276 107 135 109 174 199 204 185 214 221 235 241 233 243 247 234 239 238 228 245 244 248 247 251 261 254 259 267 269 268 269 276 267 261 253
339 343 359 355 338 327 324 326 321 242 250 359 357 349 359 339 316 308 205 220 245 239 246 252 252 254 247 243 248 247 240 251 258 257 247 243 242 264 258 263 270 270 262 249 256
344 356 357 352 336 330 327 327 275 285 277 0 323 328 307 284 232 251 294 251 225 241 241 249 244 252 250 253 234 237 236 234 236 235 241 244 241 255 265 266 272 273 267 269 260
344 339 341 322 333 341 336 353 277 3 357 349 341 312 301 299 288 273 266 258 254 221 260 277 269 230 235 239 236 225 232 228 223 226 241 240 252 260 254 258 254 282 233 241 237
343 337 335 313 345 331 309 280 7 340 345 338 340 317 310 326 347 303 271 300 350 358 184 321 287 259 226 244 239 234 221 235 249 240 245 255 243 236 243 245 241 239 234 235 140
337 310 280 327 345 313 286 292 306 351 337 326 339 326 311 313 327 310 307 339 305 324 129 295 288 277 271 218 241 236 228 223 230 232 246 236 240 253 186 225 226 196 222 201 143
325 260 243 351 326 301 284 305 312 321 314 350 305 340 321 336 322 277 273 211 222 293 295 250 222 274 282 239 216 227 227 221 241 225 236 246 264 295 83 171 174 195 196 189 146
307 291 188 344 305 266 284 324 321 319 311 309 324 339 302 291 280 306 306 340 270 281 305 299 278 265 266 271 246 233 226 230 218 218 228 247 238 68 134 229 175 260 180 151 151
305 326 336 336 329 324 323 321 309 340 355 313 321 307 2 317 314 359 334 309 349 324 338 336 261 261 258 267 258 255 224 233 237 237 219 232 250 143 148 208 216 181 149 146 150
306 326 320 325 341 306 316 314 318 328 310 342 322 330 2 298 302 283 309 270 274 246 296 292 258 262 260 309 337 312 240 230 222 207 227 220 192 198 180 189 177 137 130 142 154
307 293 337 302 313 314 302 283 311 320 332 333 324 324 330 329 321 321 331 312 312 80 34 173 277 285 259 248 285 298 286 240 224 198 217 226 226 219 165 173 112 121 141 148 156
328 337 328 302 312 306 305 317 315 333 333 319 327 323 317 311 316 307 312 302 300 296 212 230 261 298 275 246 279 300 285 277 219 201 216 239 176 44 97 112 128 147 156 161 161
339 319 306 298 309 293 310 318 318 320 312 314 309 306 308 310 307 292 283 281 280 274 265 266 289 322 255 231 301 281 243 249 245 209 209 204 194 130 210 98 120 148 159 162 160